This demonstration page uses our WeatherBlox Daily Observations layout. Learn more.

Left ArrowRight Arrow

Hourly Observations for April 28, 2019

Temp ( °F °C ) Dew Point ( °F °C ) Humidity (%) Winds ( mph kmh ) Pressure ( in mb ) Visibility ( mi km ) Precip ( " mm )
12:53 am 00:53 Clear 59 15 49 9.4 69 69 Calm 29.92 1013 10 16 0.00 0.00
1:53 am 01:53 Clear 60 15.6 48 8.9 65 65 Calm 29.92 1013 10 16 0.00 0.00
2:53 am 02:53 Clear 57 13.9 50 10 78 78 Calm 29.95 1014 10 16 0.00 0.00
3:53 am 03:53 Clear 59 15 49 9.4 69 69 S 5 7 29.96 1015 10 16 0.00 0.00
4:53 am 04:53 Clear 57 13.9 49 9.4 74 74 Calm 29.97 1015 10 16 0.00 0.00
5:53 am 05:53 Clear 56 13.3 50 10 81 81 Calm 29.98 1015 10 16 0.00 0.00
6:53 am 06:53 Sunny 55 12.8 50 10 83 83 W 3 6 29.99 1016 10 16 0.00 0.00
7:53 am 07:53 Partly Cloudy 57 13.9 51 10.6 81 81 SW 5 7 30.01 1016 10 16 0.00 0.03
8:53 am 08:53 Sunny 60 15.6 52 11.1 75 75 SSW 6 9 30.02 1017 10 16 0.00 0.00
9:53 am 09:53 Sunny 66 18.9 54 12.2 65 65 SSW 8 13 30.03 1017 10 16 0.00 0.00
10:53 am 10:53 Sunny 73 22.8 57 13.9 57 57 WNW 9 15 30.03 1017 10 16 0.00 0.00
11:53 am 11:53 Partly Cloudy 74 23.3 59 15 60 60 WNW 8 13 30.04 1017 10 16 0.00 0.00
12:53 pm 12:53 Mostly Sunny 75 23.9 60 15.6 60 60 Calm 30.03 1017 10 16 0.00 0.00
1:53 pm 13:53 Sunny 79 26.1 62 16.7 56 56 NNW 7 11 30.01 1016 10 16 0.00 0.00
2:53 pm 14:53 Partly Cloudy 80 26.7 62 16.7 54 54 undefined N/A 30.01 1016 10 16 0.00 0.00
3:53 pm 15:53 Partly Cloudy 81 27.2 61 16.1 51 51 W 9 15 30.00 1016 10 16 0.00 0.00
4:53 pm 16:53 Mostly Cloudy 80 26.7 60 15.6 51 51 SSW 10 17 29.99 1016 10 16 0.00 0.00
5:53 pm 17:53 Partly Cloudy 81 27.2 60 15.6 49 49 WSW 10 17 29.99 1016 10 16 0.00 0.00
6:53 pm 18:53 Partly Cloudy 80 26.7 60 15.6 51 51 W 7 11 29.99 1016 10 16 0.00 0.00
7:53 pm 19:53 Mostly Sunny 78 25.6 61 16.1 56 56 SW 5 7 30.00 1016 10 16 0.00 0.00
8:53 pm 20:53 Clear 75 23.9 63 17.2 66 66 Calm 30.01 1016 10 16 0.00 0.00
9:53 pm 21:53 Partly Cloudy 68 20 64 17.8 87 87 Calm 30.04 1017 10 16 0.00 0.00
10:53 pm 22:53 Mostly Clear 68 20 64 17.8 87 87 Calm 30.06 1018 10 16 0.00 0.00
11:53 pm 23:53 Clear 66 18.9 63 17.2 90 90 Calm 30.06 1018 10 16 0.00 0.00

Powered by AerisWeather